DLH48F EDDF-LEBB

Flight info

Callsign DLH48F
Flight time N/A
Altitude 34000
Route SOBRA7D SOBRA Y180 DIK UN857 TOLVU/N0427F350 DCT RAPOR DCT GIMER DCT ESTOC UT300 PON UN872 GODIX/N0413F310 UN872 TERPO DCT PEXOD DCT NENEM N867 MAPAX
Aircraft A21N/M-SDE2E3FGIJ1LORWXYZ/HB1

Departure

Time N/A
Airport Frankfurt Main Airport (EDDF)

Arrival

Time 2026-04-29 15:30
Airport Bilbao Airport (LEBB)
Time Latitude Longitude Altitude Speed Heading
2026-04-29 15:00 47.96591 -0.82134 34979 ft 434 kts 232°
2026-04-29 15:00 47.92893 -0.89243 34994 ft 434 kts 232°
2026-04-29 15:01 47.89192 -0.96348 34998 ft 434 kts 232°
2026-04-29 15:01 45.31231 -3.01788 34990 ft 433 kts 185°
2026-04-29 15:02 45.25303 -3.02393 34760 ft 423 kts 184°
2026-04-29 15:02 45.22366 -3.02672 34511 ft 422 kts 185°
2026-04-29 15:02 45.19440 -3.02950 34262 ft 421 kts 184°
2026-04-29 15:02 45.16524 -3.03230 34006 ft 419 kts 185°
2026-04-29 15:03 45.13621 -3.03513 33755 ft 417 kts 185°
2026-04-29 15:03 45.10727 -3.03794 33503 ft 416 kts 185°
2026-04-29 15:03 45.07850 -3.04075 33250 ft 414 kts 185°
2026-04-29 15:03 45.04982 -3.04355 33003 ft 412 kts 185°
2026-04-29 15:04 45.02124 -3.04633 32753 ft 411 kts 184°
2026-04-29 15:04 44.99278 -3.04909 32458 ft 409 kts 184°
2026-04-29 15:04 44.96458 -3.05186 32033 ft 405 kts 185°
2026-04-29 15:04 44.93651 -3.05461 31550 ft 403 kts 184°
2026-04-29 15:05 44.90893 -3.05727 31070 ft 402 kts 184°
2026-04-29 15:05 44.88112 -3.05993 30583 ft 400 kts 184°
2026-04-29 15:05 44.85343 -3.06261 30114 ft 398 kts 185°
2026-04-29 15:05 44.82587 -3.06531 29607 ft 397 kts 185°
2026-04-29 15:06 44.79833 -3.06804 29102 ft 396 kts 185°
2026-04-29 15:06 44.77094 -3.07076 28612 ft 394 kts 185°
2026-04-29 15:06 44.74368 -3.07350 28075 ft 391 kts 185°
2026-04-29 15:06 44.71642 -3.07648 27172 ft 395 kts 185°
2026-04-29 15:07 44.68889 -3.07953 26328 ft 397 kts 185°
2026-04-29 15:07 44.66151 -3.08257 25703 ft 392 kts 185°
2026-04-29 15:07 44.63442 -3.08559 25026 ft 389 kts 185°
2026-04-29 15:07 44.60760 -3.08860 24347 ft 385 kts 185°
2026-04-29 15:08 44.58103 -3.09157 23721 ft 381 kts 185°
2026-04-29 15:08 44.55471 -3.09450 23070 ft 377 kts 185°
2026-04-29 15:08 44.52866 -3.09742 22416 ft 374 kts 185°
2026-04-29 15:08 44.50286 -3.10031 21785 ft 370 kts 185°
2026-04-29 15:09 44.47731 -3.10317 21153 ft 367 kts 185°
2026-04-29 15:09 44.45731 -3.10365 20644 ft 365 kts 174°
2026-04-29 15:09 44.43306 -3.09407 20002 ft 362 kts 154°
2026-04-29 15:09 44.41233 -3.07442 19331 ft 360 kts 147°
2026-04-29 15:10 44.38907 -3.06131 17986 ft 370 kts 173°
2026-04-29 15:10 44.36308 -3.06266 16601 ft 379 kts 188°
2026-04-29 15:10 44.33698 -3.06658 15757 ft 375 kts 185°
2026-04-29 15:10 44.31097 -3.06591 14591 ft 375 kts 175°
2026-04-29 15:11 44.28506 -3.06182 13472 ft 374 kts 180°
2026-04-29 15:11 44.25997 -3.06699 13087 ft 359 kts 197°
2026-04-29 15:11 44.23666 -3.07727 12853 ft 344 kts 199°
2026-04-29 15:11 44.21431 -3.08715 12657 ft 330 kts 198°
2026-04-29 15:12 44.19303 -3.09601 12454 ft 317 kts 197°
2026-04-29 15:12 44.17889 -3.10166 12291 ft 310 kts 197°
2026-04-29 15:12 44.15196 -3.11215 11956 ft 297 kts 196°
2026-04-29 15:12 44.13311 -3.11940 11689 ft 295 kts 196°
2026-04-29 15:13 44.11339 -3.12692 11378 ft 293 kts 196°
2026-04-29 15:13 44.09376 -3.13436 11058 ft 292 kts 196°
2026-04-29 15:13 44.07424 -3.14174 10740 ft 290 kts 196°
2026-04-29 15:13 44.05454 -3.14792 10432 ft 290 kts 187°
2026-04-29 15:14 44.03446 -3.14650 10132 ft 290 kts 171°
2026-04-29 15:14 44.01475 -3.14081 9835 ft 289 kts 168°
2026-04-29 15:14 43.99517 -3.13475 9534 ft 288 kts 168°
2026-04-29 15:14 43.97565 -3.12882 9251 ft 287 kts 168°
2026-04-29 15:15 43.95619 -3.12303 9082 ft 286 kts 169°
2026-04-29 15:15 43.93675 -3.11731 8943 ft 285 kts 169°
2026-04-29 15:15 43.91732 -3.11165 8814 ft 285 kts 169°
2026-04-29 15:15 43.89794 -3.10603 8693 ft 284 kts 169°
2026-04-29 15:16 43.87863 -3.10040 8558 ft 284 kts 169°
2026-04-29 15:16 43.85931 -3.09480 8438 ft 283 kts 169°
2026-04-29 15:16 43.84006 -3.08923 8312 ft 283 kts 169°
2026-04-29 15:16 43.82080 -3.08368 8187 ft 282 kts 169°
2026-04-29 15:17 43.80160 -3.07817 8062 ft 282 kts 169°
2026-04-29 15:17 43.78244 -3.07268 7936 ft 281 kts 169°
2026-04-29 15:17 43.76329 -3.06717 7809 ft 281 kts 169°
2026-04-29 15:17 43.75067 -3.06353 7726 ft 280 kts 169°
2026-04-29 15:18 43.72515 -3.05620 7559 ft 280 kts 169°
2026-04-29 15:18 43.70612 -3.05073 7437 ft 279 kts 169°
2026-04-29 15:18 43.68714 -3.04529 7309 ft 278 kts 169°
2026-04-29 15:18 43.66820 -3.03962 7182 ft 278 kts 168°
2026-04-29 15:19 43.64939 -3.03363 7057 ft 278 kts 168°
2026-04-29 15:19 43.63060 -3.02764 6932 ft 277 kts 168°
2026-04-29 15:19 43.61181 -3.02170 6807 ft 276 kts 168°
2026-04-29 15:19 43.59942 -3.01778 6723 ft 276 kts 168°
2026-04-29 15:20 43.58067 -3.01199 6599 ft 275 kts 171°
2026-04-29 15:20 43.55654 -3.01740 6394 ft 270 kts 211°
2026-04-29 15:20 43.54689 -3.02811 6285 ft 270 kts 229°
2026-04-29 15:20 43.53747 -3.04975 6135 ft 259 kts 252°
2026-04-29 15:21 43.53443 -3.07350 6002 ft 246 kts 264°
2026-04-29 15:21 43.53017 -3.09554 5873 ft 233 kts 245°
2026-04-29 15:21 43.52268 -3.11466 5751 ft 221 kts 239°
2026-04-29 15:21 43.51451 -3.13195 5575 ft 210 kts 236°
2026-04-29 15:22 43.50609 -3.14752 5392 ft 195 kts 232°
2026-04-29 15:22 43.49758 -3.16145 5161 ft 188 kts 229°
2026-04-29 15:22 43.48871 -3.17440 4814 ft 187 kts 226°
2026-04-29 15:22 43.47936 -3.18685 4455 ft 186 kts 224°
2026-04-29 15:23 43.46984 -3.19837 4230 ft 179 kts 221°
2026-04-29 15:23 43.46019 -3.20895 3919 ft 176 kts 218°
2026-04-29 15:23 43.45026 -3.21879 3689 ft 176 kts 215°
2026-04-29 15:23 43.43866 -3.22595 3657 ft 189 kts 193°
2026-04-29 15:24 43.42558 -3.22513 3663 ft 191 kts 166°
2026-04-29 15:24 43.41423 -3.21577 3667 ft 194 kts 134°
2026-04-29 15:24 43.40662 -3.20055 3681 ft 190 kts 120°
2026-04-29 15:24 43.40127 -3.18503 3660 ft 169 kts 117°
2026-04-29 15:25 43.39637 -3.17147 3665 ft 147 kts 117°
2026-04-29 15:25 43.39188 -3.15912 3671 ft 144 kts 117°
2026-04-29 15:25 43.38740 -3.14683 3637 ft 144 kts 117°
2026-04-29 15:25 43.38293 -3.13458 3521 ft 143 kts 117°
2026-04-29 15:26 43.37850 -3.12243 3358 ft 142 kts 117°
2026-04-29 15:26 43.37406 -3.11026 3164 ft 142 kts 117°
2026-04-29 15:26 43.36962 -3.09811 2968 ft 142 kts 117°
2026-04-29 15:26 43.36521 -3.08602 2775 ft 141 kts 118°
2026-04-29 15:27 43.36082 -3.07397 2576 ft 141 kts 117°
2026-04-29 15:27 43.35643 -3.06197 2385 ft 141 kts 117°
2026-04-29 15:27 43.35205 -3.04997 2186 ft 140 kts 117°
2026-04-29 15:27 43.34769 -3.03804 1999 ft 140 kts 117°
2026-04-29 15:28 43.34333 -3.02610 1803 ft 140 kts 117°
2026-04-29 15:28 43.34045 -3.01821 1685 ft 140 kts 117°
2026-04-29 15:28 43.33462 -3.00226 1424 ft 139 kts 117°
2026-04-29 15:28 43.33030 -2.99043 1231 ft 139 kts 117°
2026-04-29 15:29 43.32599 -2.97862 1038 ft 138 kts 117°
2026-04-29 15:29 43.31893 -2.95931 733 ft 137 kts 117°
2026-04-29 15:30 43.31048 -2.93621 364 ft 136 kts 117°
2026-04-29 15:30 43.30630 -2.92463 193 ft 135 kts 117°
2026-04-29 15:30 43.30225 -2.91361 137 ft 107 kts 116°
2026-04-29 15:30 43.30085 -2.90775 135 ft 20 kts 96°
2026-04-29 15:31 43.30079 -2.90682 137 ft 0 kts 82°
2026-04-29 15:31 43.30092 -2.90644 139 ft 16 kts 43°
2026-04-29 15:31 43.30195 -2.90548 145 ft 20 kts 26°
2026-04-29 15:31 43.30304 -2.90577 150 ft 19 kts 327°
2026-04-29 15:32 43.30348 -2.90642 151 ft 8 kts 301°
2026-04-29 15:32 43.30383 -2.90717 152 ft 11 kts 334°
2026-04-29 15:32 43.30427 -2.90703 156 ft 7 kts 21°
2026-04-29 15:32 43.30449 -2.90689 158 ft 2 kts 26°
2026-04-29 15:33 43.30450 -2.90688 158 ft 0 kts 26°